Torna al catalogo

CZ-6A DEB

AttivoPO
NORAD 60889·DEBRIS·🇨🇳 China

Lanciato Aug 6, 2024 da Taiyuan Satellite Launch Center

Loading…

Prossimi Passaggi (prossime 24 ore)

TLE

AggiornatoSource: Space-Track

Epoca: Sep 14, 2026, 18:07 UTC

1 60889U 24140KU  26257.75528998  .00000718  00000-0  30903-3 0  9991
2 60889  88.9967 264.3266 0034405 255.5202 104.2172 14.23350354106268

Traccia CZ-6A DEB in tempo reale con AllMySat

Download on the App Store